Yakima, WA
on Thursday, December 13, 2012

Thursday
Previous Day Next Day
Daily Summary
 ActualAverageRecord
Temperature
Mean Temperature °F 28°F  
Max Temperature 36°F 36°F 57°F (1946)
Min Temperature 19°F 21°F -8°F (1972)
Degree Days
Heating Degree Days 37 37  
Month to date heating degree days 339 458  
Since 1 July heating degree days 1577 1991  
Cooling Degree Days 0 0  
Month to date cooling degree days 0 0  
Year to date cooling degree days 667 472  
Moisture
Dew Point 26°F   
Average Humidity 84    
Maximum Humidity 92    
Minimum Humidity 75    
Precipitation
Precipitation 0.00 in 0.04 in 1.30 in (1977)
Month to date precipitation 0.74 0.62  
Year to date precipitation 7.93 7.34  
Snow
Snow 0.00 in 0.20 in 3.70 in (1961)
Month to date snowfall T 3.7  
Year to date snowfall 22.2 15.9  
Since 1 July snowfall 0.7 7.3  
Snow Depth 0.00 in   
Wind
Wind Speed 4 mph   
Max Wind Speed 12 mph   
Max Gust Speed 37 mph   
Visibility 5 miles   
Events Fog   

Key: T is trace of precipitation, MM is missing value
Source: NWS Daily Summary
Time(PST)TemperatureDew PointHumidity Pressure Visibility Wind DirectionWind SpeedGust SpeedPrecipitationEvents Conditions
12:53 AM 25.0°F 21.9°F 88% 30.04 in 7.0 miles West 3.5 mph - N/A   Clear
1:53 AM 24.1°F 21.0°F 88% 30.05 in 9.0 miles WNW 3.5 mph - N/A   Clear
2:53 AM 23.0°F 19.0°F 85% 30.05 in 10.0 miles West 6.9 mph - N/A   Clear
3:53 AM 23.0°F 19.0°F 85% 30.06 in 10.0 miles WNW 4.6 mph - N/A   Clear
4:53 AM 21.9°F 18.0°F 85% 30.06 in 10.0 miles Calm Calm - N/A   Clear
5:53 AM 21.0°F 17.1°F 85% 30.08 in 10.0 miles West 3.5 mph - N/A   Clear
6:29 AM 21.2°F 17.6°F 86% 30.04 in 1.5 miles Calm Calm - N/A   Partly Cloudy
6:41 AM 21.2°F 15.8°F 80% 30.04 in 1.5 miles Calm Calm - N/A   Mostly Cloudy
6:53 AM 21.0°F 18.0°F 88% 30.09 in 1.5 miles Calm Calm - N/A   Overcast
7:06 AM 21.2°F 19.4°F 93% 30.04 in 0.2 miles Calm Calm - N/A   Overcast
7:22 AM 21.2°F 17.6°F 86% 30.04 in 10.0 miles Calm Calm - N/A   Scattered Clouds
7:53 AM 19.9°F 16.0°F 85% 30.09 in 10.0 miles WNW 4.6 mph - N/A   Clear
8:53 AM 26.1°F 21.0°F 81% 30.09 in 10.0 miles Calm Calm - N/A   Clear
9:53 AM 32.0°F 27.0°F 82% 30.07 in 10.0 miles Calm Calm - N/A   Clear
10:53 AM 33.1°F 27.0°F 78% 30.04 in 8.0 miles ENE 4.6 mph - N/A   Clear
11:53 AM 34.0°F 27.0°F 75% 30.02 in 10.0 miles East 4.6 mph - N/A   Clear
12:53 PM 34.0°F 28.0°F 79% 30.00 in 10.0 miles East 10.4 mph - N/A   Clear
1:20 PM 33.8°F 28.4°F 81% 29.95 in 2.0 miles East 9.2 mph - N/A   Mostly Cloudy
1:42 PM 33.8°F 28.4°F 81% 29.94 in 1.5 miles ESE 6.9 mph - N/A   Mostly Cloudy
1:53 PM 33.1°F 28.9°F 85% 29.98 in 1.5 miles East 9.2 mph - N/A   Mostly Cloudy
2:04 PM 32.0°F 28.4°F 87% 29.94 in 1.5 miles ESE 6.9 mph - N/A   Overcast
3:23 PM 30.2°F 28.4°F 93% 29.91 in 0.8 miles SSE 5.8 mph - N/A   Overcast
3:53 PM 30.2°F 28.4°F 93% 29.91 in 0.2 miles SSE 10.4 mph - N/A Fog Light Freezing Fog
4:06 PM 30.2°F 28.4°F 93% 29.91 in 0.5 miles SSE 5.8 mph - N/A   Overcast
4:42 PM 30.2°F 28.4°F 93% 29.91 in 7.0 miles SSW 4.6 mph - N/A   Overcast
4:53 PM 30.2°F 28.4°F 93% 29.91 in 6.0 miles Calm Calm - N/A   Overcast
5:17 PM 32.0°F 30.2°F 93% 29.91 in 2.5 miles Calm Calm - N/A   Overcast
5:53 PM 32.0°F 28.9°F 88% 29.95 in 2.5 miles WNW 3.5 mph - N/A   Overcast
6:53 PM 32.0°F 28.9°F 88% 29.93 in 2.5 miles West 3.5 mph - N/A   Overcast
7:40 PM 32.0°F 30.2°F 93% 29.88 in 1.8 miles West 4.6 mph - N/A   Overcast
7:51 PM 32.0°F 30.2°F 93% 29.88 in 2.0 miles West 4.6 mph - N/A   Overcast
7:53 PM 32.0°F 30.0°F 92% 29.92 in 2.0 miles West 3.5 mph - N/A   Overcast
8:08 PM 32.0°F 30.2°F 93% 29.87 in 1.8 miles Calm Calm - N/A   Overcast
8:16 PM 32.0°F 30.2°F 93% 29.87 in 2.0 miles WSW 3.5 mph - N/A   Overcast
8:53 PM 32.0°F 30.0°F 92% 29.91 in 2.0 miles WSW 3.5 mph - N/A   Overcast
9:19 PM 32.0°F 30.2°F 93% 29.87 in 2.0 miles North - - N/A   Overcast
9:53 PM 32.0°F 30.0°F 92% 29.91 in 2.5 miles Calm Calm - N/A   Overcast
10:53 PM 32.0°F 30.0°F 92% 29.90 in 2.5 miles West 3.5 mph - N/A   Overcast
11:09 PM 32.0°F 30.2°F 93% 29.87 in 3.0 miles WSW 3.5 mph - N/A   Overcast
11:53 PM 32.0°F 30.0°F 92% 29.90 in 4.0 miles WSW 4.6 mph - N/A   Overcast
Moon Phase
Dec. 13 Dec. 20 Dec. 28 Jan. 04 Jan. 11
Sunrise:07:38 AM (PST) Moon Rise:07:50 AM (PST)12/13
Sunset:04:14 PM (PST) Moon Set:05:04 PM (PST)12/13

Copyright © 2014 The Weather Underground, Inc.